GW1851 Weather Reports


Display with metric or nautical units.
time (UTC)temp
F
wind
direction
speed
MPH
gust
MPH
rain 1hr
in
rain 24hr
in
rain mn
in
humidity
%
barometer
mb
20260905133920 84 212 0.0 0.0 0.00 0.00 0.00 83 1014.0
20260905133415 84 205 0.0 0.0 0.00 0.00 0.00 83 1014.1
20260905132914 84 213 0.0 0.0 0.00 0.00 0.00 84 1014.4
20260905132410 81 210 0.0 0.0 0.00 0.00 0.00 88 1014.4
20260905131904 81 218 0.0 0.0 0.00 0.00 0.00 90 1014.2
20260905131400 79 213 0.0 0.0 0.00 0.00 0.00 93 1014.2
20260905130855 78 212 0.0 0.0 0.00 0.00 0.00 98 1014.2
20260905130354 76 216 0.0 0.0 0.00 0.00 0.00 99 1014.1
20260905125849 77 216 0.0 0.0 0.00 0.00 0.00 99 1014.1
20260905125344 76 216 0.0 0.0 0.00 0.00 0.00 99 1014.3
20260905124840 75 217 0.0 0.0 0.00 0.00 0.00 99 1014.3
20260905124336 75 217 0.0 0.0 0.00 0.00 0.00 99 1014.2
20260905123836 75 217 0.0 0.0 0.00 0.00 0.00 99 1014.0
20260905123333 75 217 0.0 0.0 0.00 0.00 0.00 99 1014.0
20260905122833 74 217 0.0 0.0 0.00 0.00 0.00 99 1014.0
20260905122332 74 216 0.0 0.0 0.00 0.00 0.00 99 1014.1
20260905121827 74 218 0.0 0.0 0.00 0.00 0.00 99 1014.0
20260905121324 74 218 0.0 0.0 0.00 0.00 0.00 99 1014.0
20260905120822 74 218 0.0 0.0 0.00 0.00 0.00 99 1013.9
20260905120317 74 218 0.0 0.0 0.00 0.00 0.00 99 1013.7
20260905115812 73 218 0.0 0.0 0.00 0.00 0.00 99 1013.6
20260905115312 73 217 0.0 0.0 0.00 0.00 0.00 99 1013.7
20260905114812 74 215 0.0 0.0 0.00 0.00 0.00 99 1013.7
20260905114311 74 215 0.0 0.0 0.00 0.00 0.00 99 1013.7
20260905113810 73 215 0.0 0.0 0.00 0.00 0.00 99 1013.7
20260905113306 73 215 0.0 0.0 0.00 0.00 0.00 99 1013.8
20260905112801 73 215 0.0 0.0 0.00 0.00 0.00 99 1013.3
20260905112255 74 215 0.0 0.0 0.00 0.00 0.00 99 1013.5
20260905111750 74 216 0.0 0.0 0.00 0.00 0.00 99 1013.9
20260905111245 74 216 0.0 0.0 0.00 0.00 0.00 99 1013.5
20260905110744 74 217 0.0 0.0 0.00 0.00 0.00 99 1013.4
20260905110238 74 217 0.0 0.0 0.00 0.00 0.00 99 1013.4
20260905105734 74 227 0.0 0.0 0.00 0.00 0.00 99 1013.4
20260905105233 74 221 0.0 0.0 0.00 0.00 0.00 99 1013.5
20260905104728 74 212 0.0 0.0 0.00 0.00 0.00 99 1013.5
20260905104224 74 226 0.0 0.0 0.00 0.00 0.00 99 1013.3
20260905103719 74 217 0.0 0.0 0.00 0.00 0.00 99 1013.4
20260905103215 74 216 0.0 0.0 0.00 0.00 0.00 99 1013.5
20260905102710 74 225 0.0 0.0 0.00 0.00 0.00 99 1013.4
20260905102207 74 225 0.0 0.0 0.00 0.00 0.00 99 1013.4
20260905101705 74 225 0.0 0.0 0.00 0.00 0.00 99 1013.4
20260905101204 74 225 0.0 0.0 0.00 0.00 0.00 99 1013.6
20260905100701 74 225 0.0 0.0 0.00 0.00 0.00 99 1013.4
20260905100155 74 225 0.0 0.0 0.00 0.00 0.00 99 1013.5
20260905095654 74 225 0.0 0.0 0.00 0.00 0.00 99 1013.4
20260905095149 74 225 0.0 0.0 0.00 0.00 0.00 99 1013.3
20260905094644 74 225 0.0 0.0 0.00 0.00 0.00 99 1013.3
20260905094143 74 225 0.0 0.0 0.00 0.00 0.00 99 1013.2
20260905093638 74 225 0.0 0.0 0.00 0.00 0.00 99 1013.5
20260905093135 74 225 0.0 0.0 0.00 0.00 0.00 99 1013.4
20260905092634 74 225 0.0 0.0 0.00 0.00 0.00 99 1013.5
20260905092130 74 225 0.0 0.0 0.00 0.00 0.00 99 1013.6
20260905091629 74 225 0.0 0.0 0.00 0.00 0.00 99 1013.6
20260905091124 74 225 0.0 0.0 0.00 0.00 0.00 99 1013.5
20260905090619 75 225 0.0 0.0 0.00 0.00 0.00 99 1013.7
20260905090114 74 225 0.0 0.0 0.00 0.00 0.00 99 1013.7
20260905085612 75 225 0.0 0.0 0.00 0.00 0.00 99 1013.4
20260905085109 75 225 0.0 0.0 0.00 0.00 0.00 99 1013.7
20260905084607 75 225 0.0 0.0 0.00 0.00 0.00 99 1013.5
20260905084103 75 225 0.0 0.0 0.00 0.00 0.00 99 1013.5
20260905083557 75 225 0.0 0.0 0.00 0.00 0.00 99 1013.7
20260905083054 75 225 0.0 0.0 0.00 0.00 0.00 99 1013.7
20260905082549 75 225 0.0 0.0 0.00 0.00 0.00 99 1013.8
20260905082045 75 225 0.0 0.0 0.00 0.00 0.00 99 1013.7
20260905081544 75 225 0.0 0.0 0.00 0.00 0.00 99 1013.9
20260905081039 75 225 0.0 0.0 0.00 0.00 0.00 99 1013.9
20260905080538 75 225 0.0 0.0 0.00 0.00 0.00 99 1013.6
20260905080033 75 225 0.0 0.0 0.00 0.00 0.00 99 1013.7
20260905075526 75 225 0.0 0.0 0.00 0.00 0.00 99 1013.9
20260905075021 75 225 0.0 0.0 0.00 0.00 0.00 99 1013.8
20260905074516 75 225 0.0 0.0 0.00 0.00 0.00 99 1013.8
20260905074011 75 225 0.0 0.0 0.00 0.00 0.00 99 1013.6
20260905073506 75 225 0.0 0.0 0.00 0.00 0.00 99 1014.1
20260905073002 75 225 0.0 0.0 0.00 0.00 0.00 99 1013.9
20260905072456 75 225 0.0 0.0 0.00 0.00 0.00 99 1014.1
20260905071951 75 225 0.0 0.0 0.00 0.00 0.00 99 1014.0
20260905071449 75 225 0.0 0.0 0.00 0.00 0.00 99 1014.1
20260905070947 76 225 0.0 0.0 0.00 0.00 0.00 99 1014.0
20260905070444 76 225 0.0 0.0 0.00 0.00 0.00 99 1014.2
20260905065938 76 225 0.0 0.0 0.00 0.00 0.00 99 1013.9
20260905065436 76 225 0.0 0.0 0.00 0.00 0.00 99 1014.1
20260905064932 76 225 0.0 0.0 0.00 0.00 0.00 99 1014.0
20260905064426 76 225 0.0 0.0 0.00 0.00 0.00 99 1014.0
20260905063921 76 225 0.0 0.0 0.00 0.00 0.00 99 1013.7
20260905063415 76 225 0.0 0.0 0.00 0.00 0.00 99 1013.7
20260905062912 76 225 0.0 0.0 0.00 0.00 0.00 99 1013.9
20260905062406 76 225 0.0 0.0 0.00 0.00 0.00 99 1014.0
20260905061901 76 225 0.0 0.0 0.00 0.00 0.00 99 1014.0
20260905061400 76 225 0.0 0.0 0.00 0.00 0.00 99 1014.0
20260905060855 76 225 0.0 0.0 0.00 0.00 0.00 99 1013.9
20260905060352 76 225 0.0 0.0 0.00 0.00 0.00 99 1014.1
20260905055851 77 225 0.0 0.0 0.00 0.00 0.00 99 1014.1
20260905055347 77 225 0.0 0.0 0.00 0.00 0.00 99 1014.2
20260905054846 77 225 0.0 0.0 0.00 0.00 0.00 99 1014.2
20260905054342 77 225 0.0 0.0 0.00 0.00 0.00 99 1014.4
20260905053842 77 225 0.0 0.0 0.00 0.00 0.00 99 1014.2
20260905053342 77 225 0.0 0.0 0.00 0.00 0.00 99 1014.1
20260905052837 77 225 0.0 0.0 0.00 0.00 0.00 99 1014.0
20260905052337 77 225 0.0 0.0 0.00 0.00 0.00 99 1014.2
20260905051836 77 225 0.0 0.0 0.00 0.00 0.00 99 1014.0
20260905051332 77 225 0.0 0.0 0.00 0.00 0.00 99 1014.2
20260905050830 78 224 0.0 0.0 0.00 0.00 0.00 99 1014.1
20260905050325 78 223 0.0 0.0 0.00 0.00 0.00 99 1013.9
20260905045825 77 221 0.0 0.0 0.00 0.00 0.00 99 1014.0
20260905045321 78 221 0.0 0.0 0.00 0.00 0.00 99 1013.9
20260905044816 78 221 0.0 0.0 0.00 0.00 0.00 99 1013.8
20260905044311 78 221 0.0 0.0 0.00 0.00 0.00 99 1013.8
20260905043810 78 221 0.0 0.0 0.00 0.00 0.00 99 1013.8
20260905043305 78 220 0.0 0.0 0.00 0.00 0.00 99 1013.7
20260905042805 78 220 0.0 0.0 0.00 0.00 0.00 99 1013.6
20260905042259 78 220 0.0 0.0 0.00 0.00 0.00 99 1013.4
20260905041754 78 220 0.0 0.0 0.00 0.00 0.00 99 1013.2
20260905041250 78 220 0.0 0.0 0.00 0.00 0.00 99 1013.5
20260905040744 78 220 0.0 0.0 0.00 0.00 0.00 99 1013.4
20260905040243 78 220 0.0 0.0 0.00 0.00 0.00 99 1013.6
20260905035738 79 220 0.0 0.0 0.00 0.00 0.00 99 1013.8
20260905035234 79 220 0.0 0.0 0.00 0.00 0.00 99 1013.6
20260905034731 79 220 0.0 0.0 0.00 0.00 0.00 99 1013.8
20260905034230 79 220 0.0 0.0 0.00 0.00 0.00 99 1013.9
20260905033729 79 220 0.0 0.0 0.00 0.00 0.00 99 1013.9
20260905033219 79 220 0.0 0.0 0.00 0.00 0.00 99 1014.1
20260905032718 79 220 0.0 0.0 0.00 0.00 0.00 99 1014.2
20260905032214 79 220 0.0 0.0 0.00 0.00 0.00 98 1014.1
20260905031709 79 220 0.0 0.0 0.00 0.00 0.00 98 1014.1
20260905031205 79 220 0.0 0.0 0.00 0.00 0.00 98 1014.1
20260905030700 79 220 0.0 0.0 0.00 0.00 0.00 98 1014.0
20260905030155 79 220 0.0 0.0 0.00 0.00 0.00 98 1014.0
20260905025649 79 220 0.0 0.0 0.00 0.00 0.00 98 1013.6
20260905025145 80 220 0.0 0.0 0.00 0.00 0.00 98 1013.8
20260905024641 80 220 0.0 0.0 0.00 0.00 0.00 98 1013.9
20260905024136 80 220 0.0 0.0 0.00 0.00 0.00 98 1013.9
20260905023632 80 220 0.0 0.0 0.00 0.00 0.00 97 1013.7
20260905023131 80 220 0.0 0.0 0.00 0.00 0.00 97 1013.6
20260905022630 80 220 0.0 0.0 0.00 0.00 0.00 97 1013.5
20260905022125 80 220 0.0 0.0 0.00 0.00 0.00 97 1013.5
20260905021620 80 220 0.0 0.0 0.00 0.00 0.00 97 1013.6
20260905021116 80 220 0.0 0.0 0.00 0.00 0.00 96 1013.7
20260905020615 80 220 0.0 0.0 0.00 0.00 0.00 96 1013.4
20260905020110 81 220 0.0 0.0 0.00 0.00 0.00 96 1013.4
20260905015609 81 220 0.0 0.0 0.00 0.00 0.00 96 1013.4
20260905015103 81 220 0.0 0.0 0.00 0.00 0.00 95 1013.4
20260905014557 82 220 0.0 0.0 0.00 0.00 0.00 95 1013.3
20260905014053 82 220 0.0 0.0 0.00 0.00 0.00 95 1013.2
20260905013549 82 220 0.0 0.0 0.00 0.00 0.00 94 1013.3
20260905013045 82 220 0.0 0.0 0.00 0.00 0.00 94 1013.2
20260905012544 82 220 0.0 0.0 0.00 0.00 0.00 94 1013.2
20260905012042 82 220 0.0 0.0 0.00 0.00 0.00 93 1012.9
20260905011537 82 220 0.0 0.0 0.00 0.00 0.00 93 1013.1
20260905011032 83 220 0.0 0.0 0.00 0.00 0.00 93 1012.8
20260905010527 83 220 0.0 0.0 0.00 0.00 0.00 92 1013.2
20260905010024 83 220 0.0 0.0 0.00 0.00 0.00 92 1012.9
20260905005519 83 220 0.0 0.0 0.00 0.00 0.00 92 1013.1
20260905005014 84 220 0.0 0.0 0.00 0.00 0.00 91 1013.2
20260905004509 84 220 0.0 0.0 0.00 0.00 0.00 91 1013.1
20260905004004 84 220 0.0 0.0 0.00 0.00 0.00 90 1012.9
20260905003500 85 220 0.0 0.0 0.00 0.00 0.00 89 1012.8
20260905002955 85 220 0.0 0.0 0.00 0.00 0.00 88 1012.8
20260905002450 86 220 0.0 0.0 0.00 0.00 0.00 87 1012.9
20260905001949 86 219 0.0 0.0 0.00 0.00 0.00 86 1012.9
20260905001444 87 219 0.0 0.0 0.00 0.00 0.00 85 1012.8
20260905000939 87 219 0.0 0.0 0.00 0.00 0.00 84 1012.8
20260905000435 88 219 0.0 0.0 0.00 0.00 0.00 82 1012.9
20260904235930 88 219 0.0 0.0 0.00 0.00 0.00 80 1013.0
20260904235425 89 219 0.0 0.0 0.00 0.00 0.00 77 1012.7
20260904234919 89 219 0.0 0.0 0.00 0.00 0.00 77 1012.8
20260904234414 90 219 0.0 0.0 0.00 0.00 0.00 74 1013.0
20260904233910 90 219 0.0 0.0 0.00 0.00 0.00 73 1012.9
20260904233405 91 219 0.0 0.0 0.00 0.00 0.00 72 1012.9
20260904232902 91 219 0.0 0.0 0.00 0.00 0.00 72 1012.9
20260904232358 91 219 0.0 0.0 0.00 0.00 0.00 73 1012.9
20260904231854 91 210 0.0 0.0 0.00 0.00 0.00 71 1012.7
20260904231349 92 220 0.0 0.0 0.00 0.00 0.00 71 1012.8
20260904230844 92 220 0.0 0.0 0.00 0.00 0.00 70 1013.1
20260904230342 92 220 0.0 0.0 0.00 0.00 0.00 69 1013.2
20260904225837 92 219 0.0 0.0 0.00 0.00 0.00 69 1013.0
20260904225335 92 219 0.0 0.0 0.00 0.00 0.00 68 1013.1
20260904224829 92 219 0.0 0.0 0.00 0.00 0.00 68 1013.0
20260904224325 92 222 0.0 0.0 0.00 0.00 0.00 67 1013.1
20260904223824 93 222 0.0 0.0 0.00 0.00 0.00 67 1013.0
20260904223319 93 222 0.0 0.0 0.00 0.00 0.00 66 1013.1
20260904222816 93 221 0.0 0.0 0.00 0.00 0.00 63 1013.1
20260904222316 93 216 0.0 0.0 0.00 0.00 0.00 65 1013.1
20260904221810 93 215 0.0 0.0 0.00 0.00 0.00 65 1013.0
20260904221310 94 219 0.0 0.0 0.00 0.00 0.00 63 1013.0
20260904220806 94 210 0.0 0.0 0.00 0.00 0.00 62 1013.0
20260904220305 94 224 0.0 0.0 0.00 0.00 0.00 64 1013.0
20260904215800 94 211 0.0 0.0 0.00 0.00 0.00 61 1013.1
20260904215255 94 217 1.0 1.0 0.00 0.00 0.00 62 1013.0
20260904214751 94 215 0.0 1.0 0.00 0.00 0.00 59 1013.0
20260904214247 94 213 0.0 1.0 0.00 0.00 0.00 61 1013.1
20260904213744 94 212 0.0 0.0 0.00 0.00 0.00 61 1013.0
20260904213241 95 229 2.0 2.0 0.00 0.00 0.00 62 1013.1
20260904212736 95 216 0.0 0.0 0.00 0.00 0.00 59 1013.2
20260904212236 95 231 0.0 0.0 0.00 0.00 0.00 61 1013.2
20260904211731 95 219 0.0 0.0 0.00 0.00 0.00 58 1013.3
20260904211226 95 217 1.0 1.0 0.00 0.00 0.00 58 1013.5
20260904210721 95 219 0.0 0.0 0.00 0.00 0.00 60 1013.5
20260904210216 96 236 2.0 2.0 0.00 0.00 0.00 59 1013.7
20260904205712 96 210 0.0 0.0 0.00 0.00 0.00 58 1013.9
20260904205208 97 212 0.0 0.0 0.00 0.00 0.00 59 1013.8
20260904204704 97 232 0.0 1.0 0.00 0.00 0.00 55 1013.9
20260904204200 98 227 0.0 0.0 0.00 0.00 0.00 55 1013.9
20260904203655 98 216 0.0 1.0 0.00 0.00 0.00 56 1014.1
20260904203152 98 236 2.0 2.0 0.00 0.00 0.00 55 1013.8
20260904202647 98 229 0.0 0.0 0.00 0.00 0.00 55 1013.9
20260904202144 98 221 1.0 1.0 0.00 0.00 0.00 55 1013.9
20260904201638 98 184 1.0 1.0 0.00 0.00 0.00 54 1013.9
20260904201133 98 230 2.0 2.0 0.00 0.00 0.00 58 1013.9
20260904200632 99 220 0.0 1.0 0.00 0.00 0.00 56 1014.1
20260904200127 98 211 1.0 1.0 0.00 0.00 0.00 58 1014.2
20260904195626 98 226 0.0 0.0 0.00 0.00 0.00 58 1014.2
20260904195126 97 224 0.0 1.0 0.00 0.00 0.00 60 1014.4
20260904194619 96 220 0.0 0.0 0.00 0.00 0.00 63 1014.4
20260904194115 97 221 1.0 1.0 0.00 0.00 0.00 59 1014.4
20260904193609 97 217 0.0 0.0 0.00 0.00 0.00 56 1014.7
20260904193106 97 238 1.0 1.0 0.00 0.00 0.00 56 1014.8
20260904192606 96 221 0.0 1.0 0.00 0.00 0.00 60 1014.8
20260904192101 96 261 4.0 5.0 0.00 0.00 0.00 58 1014.4
20260904191558 96 242 4.0 5.0 0.00 0.00 0.00 59 1014.7
20260904191054 96 229 0.0 1.0 0.00 0.00 0.00 58 1014.6
20260904190549 96 237 1.0 2.0 0.00 0.00 0.00 61 1015.0
20260904190046 96 218 1.0 1.0 0.00 0.00 0.00 62 1014.7
20260904185542 96 298 2.0 3.0 0.00 0.00 0.00 60 1015.2
20260904185036 96 213 1.0 2.0 0.00 0.00 0.00 61 1015.2
20260904184530 95 249 3.0 5.0 0.00 0.00 0.00 59 1015.1
20260904184026 95 220 0.0 1.0 0.00 0.00 0.00 59 1015.4
20260904183521 95 224 0.0 1.0 0.00 0.00 0.00 61 1015.5
20260904183016 95 212 1.0 1.0 0.00 0.00 0.00 60 1015.4
20260904182512 95 209 0.0 1.0 0.00 0.00 0.00 59 1015.3
20260904182012 95 253 1.0 1.0 0.00 0.00 0.00 60 1015.4
20260904181507 96 229 2.0 2.0 0.00 0.00 0.00 61 1015.4
20260904181002 96 256 3.0 3.0 0.00 0.00 0.00 60 1015.5
20260904180456 95 201 1.0 1.0 0.00 0.00 0.00 59 1015.1
20260904175956 95 258 1.0 1.0 0.00 0.00 0.00 61 1015.5
20260904175456 94 255 4.0 5.0 0.00 0.00 0.00 63 1015.3
20260904174949 94 219 1.0 1.0 0.00 0.00 0.00 63 1015.5
20260904174445 95 232 1.0 1.0 0.00 0.00 0.00 63 1015.4
20260904173941 95 217 0.0 0.0 0.00 0.00 0.00 64 1015.8
20260904173441 95 251 2.0 3.0 0.00 0.00 0.00 62 1015.5
20260904172931 94 205 2.0 2.0 0.00 0.00 0.00 64 1015.4
20260904172426 94 240 1.0 2.0 0.00 0.00 0.00 64 1015.5
20260904171921 93 219 1.0 2.0 0.00 0.00 0.00 65 1015.5
20260904171416 93 218 1.0 1.0 0.00 0.00 0.00 65 1015.7
20260904170912 94 229 1.0 1.0 0.00 0.00 0.00 63 1015.6
20260904170407 95 219 1.0 1.0 0.00 0.00 0.00 67 1015.8
20260904165903 93 214 1.0 1.0 0.00 0.00 0.00 66 1015.7
20260904165401 93 209 0.0 0.0 0.00 0.00 0.00 64 1015.5
20260904164901 93 232 3.0 5.0 0.00 0.00 0.00 63 1015.9
20260904164400 93 238 0.0 1.0 0.00 0.00 0.00 65 1015.7
20260904163857 92 216 1.0 2.0 0.00 0.00 0.00 65 1015.6
20260904163356 93 246 2.0 2.0 0.00 0.00 0.00 67 1015.6
20260904162856 93 242 3.0 5.0 0.00 0.00 0.00 65 1015.5
20260904162352 93 214 1.0 1.0 0.00 0.00 0.00 67 1015.6
20260904161847 92 221 0.0 0.0 0.00 0.00 0.00 66 1015.8
20260904161342 91 241 3.0 3.0 0.00 0.00 0.00 65 1015.5
20260904160838 92 357 1.0 2.0 0.00 0.00 0.00 65 1015.5
20260904160333 92 237 1.0 2.0 0.00 0.00 0.00 65 1015.7
20260904155828 93 174 1.0 1.0 0.00 0.00 0.00 64 1015.5
20260904155322 92 211 1.0 1.0 0.00 0.00 0.00 67 1015.8
20260904154821 92 234 0.0 1.0 0.00 0.00 0.00 66 1015.4
20260904154316 91 234 2.0 2.0 0.00 0.00 0.00 66 1015.7
20260904153812 91 236 1.0 1.0 0.00 0.00 0.00 66 1015.4
20260904153307 91 238 2.0 2.0 0.00 0.00 0.00 68 1015.7
20260904152803 90 215 0.0 1.0 0.00 0.00 0.00 68 1015.5
20260904152258 91 244 4.0 6.0 0.00 0.00 0.00 67 1015.5
20260904151753 91 220 0.0 1.0 0.00 0.00 0.00 70 1015.4
20260904151252 89 195 0.0 0.0 0.00 0.00 0.00 68 1015.4
20260904150748 89 236 3.0 3.0 0.00 0.00 0.00 69 1015.6
20260904150243 89 143 1.0 2.0 0.00 0.00 0.00 70 1015.5
20260904145741 88 221 1.0 2.0 0.00 0.00 0.00 70 1015.4
20260904145237 88 218 1.0 1.0 0.00 0.00 0.00 71 1015.3
20260904144732 88 238 2.0 3.0 0.00 0.00 0.00 70 1015.3
20260904144228 87 207 0.0 0.0 0.00 0.00 0.00 72 1015.4
20260904143723 87 245 2.0 3.0 0.00 0.00 0.00 73 1015.4
20260904143220 87 226 1.0 1.0 0.00 0.00 0.00 73 1015.2
20260904142716 87 239 3.0 5.0 0.00 0.00 0.00 72 1015.1
20260904142212 87 233 1.0 2.0 0.00 0.00 0.00 71 1015.0
20260904141711 87 239 2.0 2.0 0.00 0.00 0.00 72 1014.8
20260904141207 87 240 3.0 3.0 0.00 0.00 0.00 73 1015.1
20260904140702 86 214 1.0 2.0 0.00 0.00 0.00 73 1015.0
20260904140157 86 226 1.0 1.0 0.00 0.00 0.00 75 1014.7
20260904135656 85 211 1.0 2.0 0.00 0.00 0.00 76 1014.7
20260904135152 85 216 2.0 2.0 0.00 0.00 0.00 76 1015.1
20260904134648 85 205 0.0 0.0 0.00 0.00 0.00 78 1015.0
20260904134147 84 230 1.0 2.0 0.00 0.00 0.00 78 1014.7